Weather reports worldwide

Advertisment
Herstmonceux, United Kingdom (3882): temperature & dewpoint: 15.02.2019 21:00:00 - 21.02.2019 21:00:00 (GMT)Herstmonceux, United Kingdom (3882): temperature -20cm & temperature -100cm: 15.02.2019 21:00:00 - 21.02.2019 21:00:00 (GMT)Herstmonceux, United Kingdom (3882): wind speed: 15.02.2019 21:00:00 - 21.02.2019 21:00:00 (GMT)Herstmonceux, United Kingdom (3882): wind direction: 15.02.2019 21:00:00 - 21.02.2019 21:00:00 (GMT)Herstmonceux, United Kingdom (3882): reduced air pressure: 15.02.2019 21:00:00 - 21.02.2019 21:00:00 (GMT)Herstmonceux, United Kingdom (3882): visibility: 15.02.2019 21:00:00 - 21.02.2019 21:00:00 (GMT)Herstmonceux, United Kingdom (3882): sunshine duration: 15.02.2019 21:00:00 - 21.02.2019 21:00:00 (GMT)Herstmonceux, United Kingdom (3882): precipitation: 15.02.2019 21:00:00 - 21.02.2019 21:00:00 (GMT)
Date & Time tt [°C] td [°C] tt -20cm [°C] tt -100cm [°C] ff [km/h] ff [kn] dd ppp [hPa] vv [km] sd [min] rr [mm]
21.02.2019 21:00:00 - - - - - - - - - - -
21.02.2019 20:00:00 8,2 7,6 - - 9 5 W 1030,6 4,6 0 0,0
21.02.2019 19:00:00 8,4 7,9 - - 9 5 W 1030,2 5 0 0,0
21.02.2019 18:00:00 8,3 7,9 - - 8 4 W 1030,0 3,3 0 0,0
21.02.2019 17:00:00 8,4 7,9 - - 9 5 WSW 1029,2 3,8 0 0,0
21.02.2019 16:00:00 8,7 7,8 - - 13 7 WSW 1028,7 5 0 0,0
21.02.2019 15:00:00 9,2 8,1 - - 8 4 WSW 1028,4 7 0 0,0
21.02.2019 14:00:00 9,7 8,5 - - 9 5 WSW 1027,8 9 0 0,0
21.02.2019 13:00:00 9,4 8,3 - - 13 7 W 1027,8 8 0 0,0
21.02.2019 12:00:00 9,3 8,2 - - 13 7 W 1028,1 8 0 0,0
21.02.2019 11:00:00 8,9 7,9 - - 13 7 W 1027,5 7 0 0,0
21.02.2019 10:00:00 8,8 8,0 - - 15 8 W 1026,7 7 0 0,0
21.02.2019 09:00:00 8,3 8,0 6,7 7,2 11 6 W 1026,4 8 0 0,0
21.02.2019 08:00:00 8,0 7,7 - - 9 5 WSW 1025,6 4,3 0 0,0
21.02.2019 07:00:00 7,7 7,5 - - 11 6 SW 1025,0 4,4 0 0,0
21.02.2019 06:00:00 7,2 7,0 - - 5 3 WSW 1024,7 3,7 0 0,0
21.02.2019 05:00:00 6,5 6,1 - - 5 3 SW 1024,3 2,9 0 0,0
21.02.2019 04:00:00 6,7 6,3 - - 5 3 WSW 1024,2 4,0 0 0,2
21.02.2019 03:00:00 6,7 6,0 - - 5 3 W 1024,5 4,3 0 0,0
21.02.2019 02:00:00 6,9 6,1 - - 8 4 WSW 1024,4 6 0 0,0
21.02.2019 01:00:00 6,9 6,1 - - 8 4 WSW 1024,2 6 0 0,0
21.02.2019 00:00:00 5,9 5,1 - - 4 2 W 1024,1 7 - 0,0
20.02.2019 23:00:00 6,6 5,7 - - 4 2 WSW 1023,6 8 0 0,0
20.02.2019 22:00:00 6,2 5,2 - - 5 3 WSW 1023,5 12 0 0,0
20.02.2019 21:00:00 6,5 5,6 - - 9 5 SW 1023,3 9 0 0,0
20.02.2019 20:00:00 6,0 5,0 - - 9 5 SW 1022,9 8 0 0,0
20.02.2019 19:00:00 6,3 5,1 - - 5 3 WSW 1022,7 10 0 0,0
20.02.2019 18:00:00 6,9 4,7 - - 5 3 SW 1022,4 14 0 0,0
20.02.2019 17:00:00 8,9 5,4 - - 11 6 SW 1022,0 16 54 0,0
20.02.2019 16:00:00 10,1 5,8 - - 15 8 WSW 1021,9 22 60 0,0
20.02.2019 15:00:00 10,7 5,9 - - 13 7 WSW 1021,7 22 60 -
20.02.2019 14:00:00 10,6 6,3 - - 15 8 WSW 1021,8 15 60 -
20.02.2019 13:00:00 10,1 6,4 - - 15 8 WSW 1021,9 15 60 0,0
20.02.2019 12:00:00 10,2 5,9 - - 16 9 WSW 1021,9 15 60 0,0
20.02.2019 11:00:00 9,8 6,0 - - 21 11 SW 1021,7 17 60 0,0
20.02.2019 10:00:00 9,3 6,4 - - 16 9 SW 1021,3 17 60 0,0
20.02.2019 09:00:00 7,7 7,0 6,5 7,2 15 8 SW 1020,9 11 18 0,0
20.02.2019 08:00:00 5,1 4,8 - - 5 3 WSW 1020,7 5 0 0,0
20.02.2019 07:00:00 5,1 4,8 - - 4 2 WSW 1020,1 5 0 0,0
20.02.2019 06:00:00 5,6 5,2 - - 9 5 SW 1019,8 6 0 0,0
20.02.2019 05:00:00 5,8 5,3 - - 9 5 SW 1019,8 6 0 0,0
20.02.2019 04:00:00 6,3 5,5 - - 11 6 SW 1019,7 8 0 0,0
20.02.2019 03:00:00 6,1 5,4 - - 11 6 SW 1019,8 10 0 0,0
20.02.2019 02:00:00 5,9 5,0 - - 9 5 SW 1020,3 15 0 0,0
20.02.2019 01:00:00 5,7 4,6 - - 5 3 WSW 1020,5 11 0 0,0
20.02.2019 00:00:00 5,7 3,8 - - 8 4 SW 1020,5 21 - 0,0
19.02.2019 23:00:00 5,9 4,7 - - 9 5 SW 1020,5 20 0 0,0
19.02.2019 22:00:00 5,3 4,7 - - 8 4 SW 1020,7 13 0 0,0
19.02.2019 21:00:00 4,8 4,1 - - 5 3 SW 1020,7 12 0 0,0
19.02.2019 20:00:00 5,7 5,0 - - 5 3 WSW 1020,6 12 0 0,0
19.02.2019 19:00:00 6,2 5,3 - - 8 4 SW 1020,5 11 0 0,0
19.02.2019 18:00:00 6,7 5,4 - - 9 5 SW 1020,2 12 0 0,0
19.02.2019 17:00:00 7,9 6,2 - - 13 7 SW 1020,1 13 6 0,0
19.02.2019 16:00:00 9,1 6,6 - - 15 8 WSW 1020,1 14 18 0,0
19.02.2019 15:00:00 8,9 6,1 - - 15 8 WSW 1020,3 16 6 0,0
19.02.2019 14:00:00 10,0 5,0 - - 15 8 WSW 1020,4 17 42 0,0
19.02.2019 13:00:00 8,9 5,3 - - 15 8 W 1020,6 17 0 0,0
19.02.2019 12:00:00 9,4 4,9 - - 13 7 W 1020,8 15 36 0,0
19.02.2019 11:00:00 9,1 5,3 - - 15 8 W 1020,8 21 60 0,0
19.02.2019 10:00:00 8,5 6,8 - - 9 5 W 1020,7 14 60 0,0
19.02.2019 09:00:00 5,9 5,6 6,7 7,2 5 3 W 1020,5 10 18 0,0
19.02.2019 08:00:00 4,6 4,3 - - 8 4 W 1020,0 9 0 0,2
19.02.2019 07:00:00 3,4 3,0 - - 9 5 W 1019,2 8 0 0,0
19.02.2019 06:00:00 3,7 3,3 - - 9 5 W 1018,9 8 0 0,0
19.02.2019 05:00:00 3,8 3,4 - - 5 3 W 1018,8 11 0 0,0
19.02.2019 04:00:00 3,8 3,4 - - 5 3 W 1018,5 12 0 0,0
19.02.2019 03:00:00 2,9 2,4 - - 4 2 W 1018,5 12 0 0,0
19.02.2019 02:00:00 4,1 3,8 - - 5 3 WSW 1018,2 10 0 0,0
19.02.2019 01:00:00 4,3 4,0 - - 4 2 W 1017,9 7 0 0,0
19.02.2019 00:00:00 5,2 4,8 - - 5 3 W 1017,5 5 - 0,0
18.02.2019 23:00:00 6,0 5,4 - - 5 3 WSW 1017,4 4,9 0 0,0
18.02.2019 22:00:00 7,6 6,8 - - 8 4 W 1017,4 12 0 0,0
18.02.2019 21:00:00 7,7 6,9 - - 8 4 W 1017,0 20 0 0,0
18.02.2019 20:00:00 7,1 6,5 - - 8 4 WSW 1016,7 19 0 0,0
18.02.2019 19:00:00 6,8 6,0 - - 5 3 SW 1016,3 30 0 0,0
18.02.2019 18:00:00 6,9 5,7 - - 8 4 WSW 1016,0 40 0 0,2
18.02.2019 17:00:00 7,5 6,2 - - 8 4 SW 1015,3 40 0 0,2
18.02.2019 16:00:00 8,4 5,2 - - 9 5 WNW 1015,4 23 0 0,0
18.02.2019 15:00:00 9,6 6,4 - - 8 4 W 1015,3 30 0 0,0
18.02.2019 14:00:00 9,8 7,2 - - 9 5 W 1015,3 25 0 0,0
18.02.2019 13:00:00 9,3 7,9 - - 13 7 WSW 1016,0 9 0 0,0
18.02.2019 12:00:00 9,8 8,4 - - 13 7 SW 1016,2 9 6 0,0
18.02.2019 11:00:00 10,5 9,7 - - 11 6 SW 1016,1 11 6 0,0
18.02.2019 10:00:00 9,0 8,9 - - 9 5 SW 1016,5 7 0 0,0
18.02.2019 09:00:00 8,5 8,5 6,5 7,2 8 4 SW 1016,7 4,0 0 0,0
18.02.2019 08:00:00 6,9 6,9 - - 5 3 SSW 1016,6 0,7 0 0,0
18.02.2019 07:00:00 5,6 5,4 - - 2 1 ESE 1016,4 0,4 0 0,0
18.02.2019 06:00:00 4,7 4,4 - - 4 2 ENE 1016,5 0,1 0 0,0
18.02.2019 05:00:00 6,7 6,5 - - 5 3 SSW 1016,4 1,6 0 0,0
18.02.2019 04:00:00 6,6 6,2 - - 5 3 SSW 1016,7 4,9 0 0,0
18.02.2019 03:00:00 7,1 6,4 - - 5 3 SW 1016,8 7 0 0,0
18.02.2019 02:00:00 8,2 6,9 - - 4 2 WSW 1017,0 9 0 0,0
18.02.2019 01:00:00 9,8 8,3 - - 5 3 WSW 1017,4 10 0 0,0
18.02.2019 00:00:00 10,4 8,3 - - 9 5 WSW 1017,2 13 - 0,0
17.02.2019 23:00:00 10,8 7,9 - - 13 7 SW 1017,0 14 0 0,0
17.02.2019 22:00:00 10,9 7,7 - - 11 6 SW 1016,8 15 0 0,0
17.02.2019 21:00:00 9,8 8,0 - - 5 3 SSW 1016,9 11 0 0,0
17.02.2019 20:00:00 9,4 7,7 - - 11 6 SW 1017,0 13 0 0,0
17.02.2019 19:00:00 8,7 6,9 - - 11 6 SW 1017,1 15 0 0,0
17.02.2019 18:00:00 9,8 7,5 - - 13 7 SW 1016,8 15 0 0,0
17.02.2019 17:00:00 10,5 7,7 - - 13 7 SW 1016,4 17 0 0,0
17.02.2019 16:00:00 10,6 7,3 - - 16 9 SW 1016,3 16 12 0,0
17.02.2019 15:00:00 12,0 7,2 - - 13 7 WSW 1016,2 14 60 0,0
17.02.2019 14:00:00 12,3 6,7 - - 9 5 WSW 1016,1 30 60 0,0
17.02.2019 13:00:00 11,9 6,3 - - 15 8 WSW 1016,5 21 60 0,0
17.02.2019 12:00:00 11,5 5,1 - - 18 10 SW 1016,4 17 60 -
17.02.2019 11:00:00 11,1 5,3 - - 15 8 SSW 1016,6 23 60 -
17.02.2019 10:00:00 9,5 6,8 - - 13 7 S 1016,5 19 60 0,0
17.02.2019 09:00:00 7,2 7,1 6,0 7,2 8 4 S 1016,8 13 12 0,0
17.02.2019 08:00:00 5,4 5,4 - - 5 3 S 1017,1 11 0 0,0
17.02.2019 07:00:00 4,8 4,7 - - 4 2 SSE 1017,3 4,7 0 0,0
17.02.2019 06:00:00 3,6 3,5 - - 8 4 E 1017,4 0,9 0 0,0
17.02.2019 05:00:00 5,1 5,0 - - 5 3 ESE 1018,0 2,6 0 0,0
17.02.2019 04:00:00 5,7 5,7 - - 8 4 SSE 1018,5 4,6 0 0,0
17.02.2019 03:00:00 4,6 4,6 - - 5 3 SSE 1019,4 1,9 0 0,2
17.02.2019 02:00:00 5,6 5,6 - - 4 2 S 1020,1 3,1 0 0,0
17.02.2019 01:00:00 4,7 4,6 - - 4 2 ESE 1020,8 0,7 0 0,0
17.02.2019 00:00:00 10,4 8,3 - - 9 5 WSW 1017,2 13 - 0,0
16.02.2019 23:00:00 3,5 3,3 - - 8 4 E 1022,0 0,1 0 0,0
16.02.2019 22:00:00 3,5 3,1 - - 5 3 E 1022,4 0,1 0 0,0
16.02.2019 21:00:00 4,7 4,2 - - 4 2 ESE 1022,9 0,2 0 0,0
16.02.2019 20:00:00 6,2 5,6 - - 4 2 SE 1023,1 1,8 0 0,0
16.02.2019 19:00:00 7,4 6,4 - - 4 2 SSE 1023,4 2,7 0 0,0
16.02.2019 18:00:00 8,9 8,0 - - 4 2 S 1023,4 6 0 0,0
16.02.2019 17:00:00 9,2 7,9 - - 9 5 SW 1023,2 8 18 0,0
16.02.2019 16:00:00 10,3 8,5 - - 8 4 WSW 1023,4 10 0 0,0
16.02.2019 15:00:00 10,7 8,7 - - 15 8 SW 1023,7 10 0 0,0
16.02.2019 14:00:00 11,0 9,5 - - 5 3 W 1024,1 11 0 0,0
16.02.2019 13:00:00 10,6 9,8 - - 11 6 SW 1024,6 8 0 0,0
16.02.2019 12:00:00 10,0 9,9 - - 9 5 SW 1025,1 7 0 0,0
16.02.2019 11:00:00 9,1 9,1 - - 8 4 SSW 1025,2 3,2 0 0,0
16.02.2019 10:00:00 8,0 8,0 - - 5 3 SSW 1024,9 2,9 0 0,0
16.02.2019 09:00:00 6,3 6,3 5,7 7,2 2 1 S 1024,9 2,2 0 0,0
16.02.2019 08:00:00 3,6 3,5 - - 2 1 SSE 1024,9 0,6 0 0,0
16.02.2019 07:00:00 5,4 5,3 - - 4 2 SW 1024,2 1,3 0 0,0
16.02.2019 06:00:00 5,4 5,4 - - 8 4 SW 1023,9 1,8 0 0,0
16.02.2019 05:00:00 4,9 4,8 - - 5 3 W 1023,6 3,2 0 0,0
16.02.2019 04:00:00 5,6 5,5 - - 9 5 SW 1023,3 3,0 0 0,0
16.02.2019 03:00:00 5,3 5,3 - - 5 3 W 1023,9 4,3 0 0,0
16.02.2019 02:00:00 3,0 2,8 - - 5 3 NNE 1024,3 1,3 0 0,0
16.02.2019 01:00:00 4,4 4,3 - - 2 1 SSE 1024,6 3,5 0 0,2
16.02.2019 00:00:00 3,9 3,8 - - 2 1 SSE 1024,9 1,7 - 0,0
15.02.2019 23:00:00 3,6 3,5 - - 0 0 N 1025,1 1,0 0 0,0
15.02.2019 22:00:00 3,0 2,8 - - 2 1 ENE 1025,4 1,2 0 0,0
15.02.2019 21:00:00 2,9 2,5 - - 4 2 ENE 1025,4 0,5 0 0,0

tt = temperature
td = dewpoint
tt -20cm = temperature -20cm
tt -100cm = temperature -100cm
ff = wind speed
dd = wind direction
ppp = reduced air pressure
vv = visibility
sd = sunshine duration
rr = precipitation

Next stations